[[{"header":{"parameterUnit":"m.s-1","parameterCategory":1,"la1":30.2991,"la2":30.254,"lo1":-89.0895,"lo2":-89.0444,"dy":0.0017,"dx":0.0017,"nx":28,"ny":28,"refTime":"2025-05-26T09:00:00:Z","depth":0,"parameterNumber":2,"parameterNumberName":"U-component_of_WINDS"},"data":[0,0,0,0,0,0,0,0,0,0,0,0,0,0,0,0,0,0,0,0,0,0,0,0,0,0,0,0,0,0,0,0,0,0,0,0,0,0,0,0,0,0,0,0,0,0,0,0,0,0,0,0,0,0,0,0,0,0,2.1185,2.1186,0,2.1253,2.1254,2.1254,2.1248,2.1247,2.1246,2.1245,2.1313,2.1316,2.1319,0,0,0,0,0,0,0,0,0,0,0,0,0,2.1047,2.105,2.1185,2.1186,2.1187,2.1253,2.1254,2.1255,2.1248,2.1247,2.1245,2.1244,2.1312,2.1316,2.1319,0,0,0,0,0,0,0,0,0,0,0,0,0,2.111,2.1051,2.1185,2.1191,2.1193,2.1253,2.1254,2.1255,2.1248,2.1247,2.1245,2.1244,2.1311,2.1315,2.1319,2.1377,0,0,2.1332,2.1334,0,0,0,0,0,0,0,0,2.1107,2.1115,2.119,2.1191,2.1193,2.124,2.123,2.1296,2.1249,2.1227,2.1245,2.1243,2.129,2.1296,2.1312,2.138,2.1383,2.1333,2.1335,2.1337,2.1338,0,0,0,0,0,0,0,2.1102,2.1112,2.1212,2.1191,2.1192,2.119,2.1197,2.1243,2.1267,2.1229,2.1229,2.1237,2.1291,2.1308,2.1314,2.1384,2.1333,2.1336,2.1339,2.134,2.1501,2.1502,0,0,0,0,0,0,2.1097,2.1109,2.121,2.1214,2.1145,2.1194,2.1202,2.1227,2.1266,2.1271,2.1238,2.1236,2.1302,2.1309,2.1316,2.1385,2.1337,2.1341,2.1343,2.1499,2.1501,2.1503,0,0,0,0,0,0,2.1094,2.1106,2.1207,2.1161,2.1174,2.1198,2.1226,2.1229,2.1246,2.1273,2.1277,2.1252,2.1301,2.131,2.1362,2.1387,2.1343,2.1347,2.1497,2.15,2.1502,2.1524,0,0,0,0,0,0,2.109,2.1105,2.1128,2.1162,2.1176,2.1252,2.1227,2.1231,2.1254,2.1252,2.1287,2.1291,2.13,2.1355,2.1366,2.1392,2.135,2.1495,2.1498,2.1501,2.1521,2.1527,2.1532,0,0,0,0,0,2.1085,2.1131,2.1129,2.1141,2.1205,2.1253,2.1262,2.1272,2.1256,2.1278,2.1295,2.129,2.1383,2.1361,2.1372,2.1401,2.1493,2.1497,2.1501,2.1519,2.1526,2.1532,0,0,0,0,0,0,2.1099,2.1136,2.1134,2.1192,2.122,2.1252,2.1281,2.1279,2.1312,2.1309,2.1319,2.1327,2.1378,2.1395,2.1369,2.1457,2.1436,2.1442,2.1445,2.1452,2.1458,2.1453,2.1353,0,0,0,0,0,2.1109,2.1146,2.1175,2.1224,2.1238,2.1257,2.1279,2.1284,2.1312,2.1324,2.1345,2.1373,2.1408,2.1431,2.1465,2.1523,2.153,2.1548,2.1554,2.1558,2.1564,2.1594,2.1602,2.1516,2.1516,2.1516,0,0,2.113,2.1155,2.1177,2.1228,2.125,2.1286,2.1267,2.1307,2.1334,2.133,2.138,2.1396,2.1427,2.1482,2.1507,2.1497,2.1589,2.1563,2.1566,2.1569,2.1599,2.1607,2.1614,2.1519,2.1518,2.1518,0,0,2.1187,2.121,2.1252,2.1275,2.1308,2.132,2.133,2.1363,2.1373,2.1423,2.142,2.1452,2.1513,2.1535,2.1555,2.1618,2.1614,2.1629,2.1658,2.1687,2.1694,2.17,2.1722,2.173,2.1634,2.1634,2.1634,0,2.1209,2.1265,2.1275,2.1315,2.1336,2.1334,2.1376,2.1397,2.144,2.1455,2.1443,2.1518,2.1539,2.1599,2.1614,2.163,2.1641,2.1625,2.1693,2.1699,2.1705,2.1725,2.1734,2.1636,2.1636,2.1635,2.1635,0,2.129,2.1328,2.1358,2.14,2.1425,2.1466,2.1481,2.1505,2.1507,2.152,2.157,2.1595,2.1634,2.1648,2.1651,2.1708,2.17,2.169,2.1669,2.1714,2.1734,2.1742,2.1638,2.1637,2.1637,2.1637,0,0,2.1359,2.1403,2.1414,2.1432,2.1468,2.1498,2.1538,2.1576,2.1596,2.1625,2.1658,2.1709,2.17,2.1721,2.1727,2.1753,2.18,2.174,2.1741,2.1749,2.1863,2.1869,2.1879,2.1798,2.1799,2.1801,2.186,0,2.1419,2.1491,2.1499,2.1563,2.1598,2.1595,2.163,2.1655,2.1668,2.1699,2.1713,2.1749,2.1734,2.1747,2.1773,2.1789,2.1823,2.1785,2.1828,2.183,2.182,2.1889,2.1897,2.1951,2.1867,2.1869,2.187,0,2.1499,2.153,2.1597,2.1626,2.1641,2.1673,2.1707,2.1737,2.1765,2.1772,2.1796,2.1797,2.1838,2.1815,2.187,2.1844,2.1862,2.1872,2.1874,2.1879,2.1852,2.1895,2.1969,2.1977,2.1882,2.1881,2.188,0,2.1541,2.1599,2.1647,2.1662,2.1698,2.172,2.1736,2.1762,2.1784,2.1814,2.1828,2.1862,2.188,2.1906,2.1917,2.1899,2.1971,2.1949,2.1978,2.1977,2.1993,2.1992,2.2071,2.2005,2.2005,2.2005,2.2005,0,2.1607,2.1648,2.1666,2.1695,2.174,2.175,2.1794,2.1809,2.1832,2.1863,2.1863,2.1892,2.1904,2.1935,2.1943,2.1987,2.1996,2.2002,2.2004,2.2002,2.2001,2.2014,2.201,2.2007,2.2007,2.2006,2.2006,0,2.1662,2.1676,2.1727,2.1757,2.1765,2.1797,2.1822,2.1849,2.1861,2.1901,2.191,2.1929,2.1965,2.1978,2.2022,2.2027,2.2078,2.2077,2.2069,2.2069,2.2097,2.2094,2.2187,2.2199,2.2126,2.2126,2.2127,0,2.1703,2.1734,2.1767,2.1788,2.1805,2.1838,2.186,2.187,2.1892,2.1926,2.1949,2.1985,2.2014,2.2071,2.2089,2.2122,2.2121,2.2151,2.2126,2.2123,2.212,2.2118,2.2121,2.2156,2.2157,2.2157,2.2158,0,2.1774,2.1779,2.1811,2.1844,2.187,2.1897,2.1923,2.194,2.1954,2.1979,2.2016,2.2038,2.2082,2.2118,2.2151,2.2167,2.2164,2.2165,2.2174,2.2172,2.2166,2.2169,2.2081,2.2163,2.2163,2.2162,2.2162,2.2162,2.1823,2.185,2.1877,2.1912,2.1932,2.1956,2.1983,2.1998,2.2029,2.2066,2.207,2.2109,2.2135,2.218,2.2197,2.2227,2.2219,2.2231,2.2234,2.2236,2.2238,2.2161,2.2233,2.2233,2.2233,2.2233,2.2233,0,2.1893,2.191,2.1942,2.1978,2.2005,2.2,2.2028,2.2051,2.2085,2.211,2.2138,2.218,2.2213,2.2233,2.2266,2.2287,2.2286,2.2295,2.2294,2.2297,2.2244,2.2233,2.2295,2.2295,2.2295,2.2295,2.2295,2.2295,2.1933,2.1978,2.1986,2.2041,2.2057,2.2096,2.2112,2.2134,2.2153,2.2199,2.2227,2.224,2.2262,2.2297,2.2327,2.2332,2.2344,2.2353,2.2357,2.2307,2.2301,2.2295,2.2285,2.2356,2.2356,2.2407,2.2408,2.2408]},{"header":{"parameterUnit":"m.s-1","parameterCategory":1,"la1":30.2991,"la2":30.254,"lo1":-89.0895,"lo2":-89.0444,"dy":0.0017,"dx":0.0017,"nx":28,"ny":28,"refTime":"2025-05-26T09:00:00:Z","depth":0,"parameterNumber":3,"parameterNumberName":"V-component_of_WINDS"},"data":[0,0,0,0,0,0,0,0,0,0,0,0,0,0,0,0,0,0,0,0,0,0,0,0,0,0,0,0,0,0,0,0,0,0,0,0,0,0,0,0,0,0,0,0,0,0,0,0,0,0,0,0,0,0,0,0,0,0,1.7891,1.7891,0,1.7892,1.7892,1.7892,1.7871,1.787,1.7869,1.7869,1.7872,1.7873,1.7874,0,0,0,0,0,0,0,0,0,0,0,0,0,1.7872,1.7872,1.7891,1.7891,1.7891,1.7892,1.7892,1.7892,1.7871,1.787,1.7869,1.7869,1.7872,1.7873,1.7874,0,0,0,0,0,0,0,0,0,0,0,0,0,1.7878,1.7873,1.7891,1.788,1.7879,1.7892,1.7892,1.7892,1.7871,1.787,1.7869,1.7868,1.7872,1.7873,1.7874,1.7898,0,0,1.7877,1.7877,0,0,0,0,0,0,0,0,1.7877,1.7878,1.7882,1.7881,1.788,1.788,1.7887,1.7894,1.7871,1.7874,1.7869,1.7868,1.7876,1.7876,1.7879,1.7898,1.7898,1.7877,1.7877,1.7878,1.7878,0,0,0,0,0,0,0,1.7877,1.7878,1.7891,1.7882,1.7881,1.7876,1.7876,1.7888,1.788,1.7874,1.7872,1.7873,1.7875,1.7878,1.7879,1.7898,1.7877,1.7878,1.7878,1.7879,1.7938,1.7939,0,0,0,0,0,0,1.7878,1.7878,1.7891,1.7891,1.7876,1.7877,1.7877,1.7881,1.788,1.7879,1.7873,1.7871,1.7877,1.7878,1.7879,1.7908,1.7878,1.7879,1.7879,1.7937,1.7939,1.794,0,0,0,0,0,0,1.7877,1.7879,1.7891,1.7884,1.7885,1.7878,1.7883,1.7882,1.7884,1.7879,1.7878,1.7877,1.7876,1.7877,1.7893,1.7907,1.7879,1.788,1.7936,1.7938,1.7939,1.7965,0,0,0,0,0,0,1.7877,1.7879,1.7887,1.7885,1.7886,1.7905,1.7884,1.7882,1.7886,1.7883,1.7883,1.7882,1.7875,1.7892,1.7894,1.7908,1.7881,1.7935,1.7937,1.7939,1.7963,1.7967,1.7971,0,0,0,0,0,1.7876,1.7895,1.7888,1.789,1.7896,1.7906,1.7907,1.7898,1.7887,1.7896,1.7893,1.7882,1.7905,1.7894,1.7896,1.7911,1.7934,1.7936,1.7939,1.7961,1.7966,1.7971,0,0,0,0,0,0,1.79,1.7894,1.7886,1.7904,1.7906,1.7902,1.7913,1.7904,1.7909,1.7907,1.7897,1.7897,1.7915,1.7914,1.7901,1.7934,1.7918,1.7921,1.7934,1.7939,1.7943,1.7943,1.7882,0,0,0,0,0,1.7907,1.7915,1.791,1.7926,1.7927,1.792,1.7924,1.7917,1.7919,1.7919,1.7918,1.792,1.7928,1.7933,1.794,1.7963,1.7963,1.7974,1.7978,1.7981,1.7984,1.7997,1.8002,1.7947,1.7947,1.7947,0,0,1.7922,1.792,1.7926,1.7931,1.7931,1.794,1.7921,1.7931,1.7938,1.7921,1.7936,1.7935,1.7937,1.7957,1.7965,1.7957,1.7999,1.7984,1.7987,1.7988,1.8,1.8005,1.801,1.7949,1.7948,1.7948,0,0,1.7954,1.7953,1.7967,1.7968,1.7968,1.7964,1.7967,1.7965,1.7964,1.7979,1.7966,1.7975,1.7989,1.7991,1.7994,1.8028,1.8019,1.8031,1.8052,1.8065,1.8069,1.8073,1.8087,1.8091,1.8034,1.8034,1.8034,0,1.7973,1.7986,1.7976,1.7987,1.799,1.7975,1.799,1.7991,1.7994,1.7997,1.7988,1.8005,1.8005,1.8026,1.8034,1.8037,1.8042,1.8031,1.8069,1.8073,1.8077,1.8089,1.8094,1.8035,1.8035,1.8035,1.8035,0,1.801,1.8019,1.803,1.8033,1.8038,1.8051,1.8043,1.8049,1.8043,1.8039,1.8055,1.8055,1.8063,1.8067,1.806,1.8087,1.8082,1.8071,1.8054,1.8084,1.8095,1.81,1.8037,1.8037,1.8036,1.8036,0,0,1.8057,1.8054,1.8059,1.806,1.806,1.8068,1.8081,1.8087,1.8093,1.8096,1.8107,1.812,1.811,1.8113,1.8107,1.8118,1.8147,1.8106,1.8106,1.8115,1.8178,1.8187,1.8192,1.8141,1.8142,1.8142,1.8178,0,1.8089,1.811,1.8101,1.8124,1.8133,1.8119,1.813,1.8132,1.813,1.8138,1.8135,1.8145,1.8131,1.8133,1.8143,1.8141,1.816,1.8139,1.8153,1.8153,1.8153,1.8198,1.8207,1.8241,1.8183,1.8183,1.8184,0,1.8129,1.8133,1.8156,1.8156,1.8159,1.8169,1.8175,1.8183,1.8185,1.8183,1.8187,1.8179,1.8193,1.8176,1.8196,1.8182,1.8187,1.8187,1.8188,1.819,1.8171,1.8202,1.8251,1.8257,1.8191,1.819,1.819,0,1.8162,1.8173,1.8189,1.8191,1.819,1.8198,1.8198,1.82,1.8205,1.821,1.8213,1.8221,1.8225,1.8232,1.8226,1.8214,1.8248,1.823,1.8247,1.8247,1.8255,1.8255,1.8307,1.8257,1.8257,1.8257,1.8257,0,1.8199,1.8214,1.8204,1.8214,1.823,1.8221,1.8238,1.8237,1.8239,1.8249,1.8238,1.8248,1.8239,1.8249,1.8245,1.8263,1.8265,1.8264,1.8263,1.8265,1.8266,1.8269,1.8267,1.8258,1.8258,1.8258,1.8258,0,1.8238,1.8232,1.8249,1.8247,1.8247,1.8259,1.8258,1.8268,1.8265,1.8278,1.8281,1.8276,1.8287,1.8282,1.8294,1.8291,1.8314,1.831,1.8313,1.8312,1.833,1.8329,1.8387,1.8395,1.834,1.834,1.8341,0,1.8263,1.8274,1.8273,1.8279,1.828,1.8289,1.8294,1.8286,1.8292,1.8296,1.8305,1.8315,1.8323,1.8341,1.834,1.8349,1.8345,1.8365,1.8346,1.8349,1.8346,1.8346,1.8348,1.8368,1.8369,1.837,1.837,0,1.8306,1.8303,1.831,1.8317,1.8323,1.8328,1.8332,1.8337,1.833,1.8337,1.8348,1.8353,1.8365,1.8376,1.8384,1.8386,1.8377,1.8376,1.8381,1.8383,1.8386,1.8386,1.8324,1.8375,1.8374,1.8374,1.8374,1.8373,1.834,1.8349,1.8351,1.8359,1.8362,1.8366,1.8375,1.8373,1.8382,1.839,1.8385,1.8398,1.8402,1.8412,1.8415,1.8426,1.8419,1.8425,1.8427,1.8429,1.8432,1.8383,1.8428,1.8428,1.8427,1.8427,1.8427,0,1.8384,1.8384,1.8392,1.8398,1.8405,1.8396,1.84,1.8407,1.8419,1.8422,1.843,1.8443,1.8454,1.8453,1.8463,1.8472,1.8469,1.8475,1.8475,1.8476,1.8437,1.8433,1.8478,1.8478,1.8478,1.8478,1.8478,1.8478,1.8407,1.8424,1.8421,1.8438,1.8439,1.8451,1.8454,1.8459,1.8462,1.8477,1.8485,1.8485,1.8488,1.8498,1.8508,1.8507,1.8512,1.852,1.8519,1.8483,1.8478,1.8473,1.8469,1.8521,1.8521,1.8556,1.8557,1.8557]}]]